Regional Weather Roundup
Issued by NWS

Home | Current Version | Previous Version | Text Only | Print | Product List | Glossary On
Versions: 1 2 3 4 5 6 7 8 9 10 11 12 13 14 15 16 17 18 19 20 21 22 23 24 25 26 27 28 29 30 31 32 33 34 35 36 37 38 39 40 41 42 43 44 45 46 47 48 49 50
000
ASUS46 KLOX 050313
RWRCA

SOUTHERN CALIFORNIA WEATHER ROUNDUP
NATIONAL WEATHER SERVICE OXNARD CALIFORNIA
800 PM PDT TUE AUG 04 2015

NOTE: "FAIR" INDICATES FEW OR NO CLOUDS BELOW 12,000 FEET WITH NO
SIGNIFICANT WEATHER AND/OR OBSTRUCTIONS TO VISIBILITY.

  -  STATIONS PRECEEDED BY AN ASTERISK (*) ARE NOT NWS OR FAA
     STATIONS AND ARE NOT SUBJECT TO NWS AND FAA QUALITY CONTROL.

CAZ041-042-087-050400-
LA AND ORANGE COUNTY COASTAL AREAS


CITY           SKY/WX    TMP DP  RH WIND       PRES   REMARKS
L.A. DOWNTOWN  CLEAR     73  60  63 CALM      29.88S
L.A. AIRPORT   PTCLDY    71  61  70 SW15      29.88F
LONG BEACH     CLEAR     76  59  55 NW16      29.88S

CITY           SKY/WX    TMP DP  RH WIND       PRES   REMARKS
AVALON           N/A     73 N/A N/A MISG        N/A
FULLERTON      CLEAR     78  56  46 W5        29.87S
*GETTY CENTER    N/A     73  59  60 N6          N/A
HAWTHORNE      CLEAR     74  60  61 W13       29.88S
*LOS ALAMITOS  CLEAR     76  60  56 W9        29.88S
*REDONDO BEACH   N/A     71  61  70 SW6       29.89S
SANTA ANA      CLEAR     78  60  53 W6        29.87S
STA MONICA APT CLEAR     72  61  68 E5        29.88S
*STA MON PIER    N/A     73  65  75 E6        29.86S
TORRANCE       CLEAR     72  61  68 NW14      29.89S
*UCLA            N/A     72  61  68 NE2       29.85F

$$

CAZ547-548-048-050400-
LA COUNTY VALLEYS AND INLAND EMPIRE


CITY           SKY/WX    TMP DP  RH WIND       PRES   REMARKS
BURBANK        CLEAR     83  53  35 SE8       29.89R
VAN NUYS       CLEAR     83  51  33 NW7       29.89R

CITY           SKY/WX    TMP DP  RH WIND       PRES   REMARKS
CORONA AIRPORT PTCLDY    82  54  38 N5        29.89R
CHINO          CLEAR     83  52  34 SW8       29.90R
MARCH AFB      CLEAR     83  56  38 NW10      29.93R
*NORTHRIDGE      N/A     81  50  34 SW3G9       N/A
ONTARIO        PTCLDY    85  53  33 SW8       29.90R
*PASADENA        N/A     81  52  36 CALM        N/A
RIVERSIDE      CLEAR     85  52  32 W6        29.90R
SAN BERNARDINO CLEAR     86  50  28 SW9       29.91R
*WHITEMAN AP   NOT AVBL
*WOODLAND HILL   N/A     81  54  39 W3          N/A

$$

CAZ054-055-050400-
LA AND SAN BERNARDINO COUNTY MOUNTAINS


CITY           SKY/WX    TMP DP  RH WIND       PRES   REMARKS
*BIG BEAR AIRP CLEAR     64  34  32 W6        30.29S
SANDBERG       CLEAR     75  47  36 SW8       30.12S

$$

CAZ028-029-059-060-099-050400-
ANTELOPE VALLEY AND SURROUNDING AREAS


CITY           SKY/WX    TMP DP  RH WIND       PRES   REMARKS
LANCASTER      CLEAR     84  42  22 W13       29.96R
PALMDALE       CLEAR     84  39  20 SW12      29.98R

CITY           SKY/WX    TMP DP  RH WIND       PRES   REMARKS
29 PALMS       PTCLDY    95  37  13 SW14      29.92R HX  90
BARSTOW/DAGGET CLEAR     97  36  12 SW22      29.86R HX  92
BISHOP         PTCLDY    87  35  15 W5        29.92S
CHINA LAKE     PTCLDY    91  39  16 SW18      29.87R
EDWARDS AFB    PTCLDY    87  38  17 SW20G25   29.92R
MOJAVE         CLEAR     84  46  26 W16G22    29.97R
NEEDLES        CLEAR    104  26   6 W8        29.75R HX  96
VICTORVILLE    CLEAR     88  39  18 W21G29    29.98R

$$

CAZ039-040-050400-
VENTURA AND SANTA BARBARA COUNTY COAST


CITY           SKY/WX    TMP DP  RH WIND       PRES   REMARKS
CAMARILLO      CLEAR     72  58  61 W7        29.90S
OXNARD AIRPORT CLEAR     69  59  70 W14       29.90R
*POINT MUGU    PTCLDY    70  59  68 W13       29.91S
SBA APT/GOLETA PTCLDY    78  58  49 SE7       29.86S
*SANTA BARBARA   N/A     78  62  58 CALM      29.95S
*VENTURA         N/A     71  59  66 SW6       29.50S

$$

CAZ044-045-050400-
VENTURA COUNTY VALLEYS


CITY           SKY/WX    TMP DP  RH WIND       PRES   REMARKS
*SIMI VALLEY     N/A     75  60  58 CALM      29.86S
*OJAI            N/A     79  57  46 CALM      29.82S
*FILLMORE        N/A     77  60  56 SW6       29.81R

$$

CAZ053-050400-
VENTURA COUNTY MOUNTAINS


CITY           SKY/WX    TMP DP  RH WIND       PRES   REMARKS

$$

CAZ034-035-036-050400-
CENTRAL COAST AND SANTA YNEZ VALLEY


CITY           SKY/WX    TMP DP  RH WIND       PRES   REMARKS
SAN LUIS OBISP CLEAR     66  55  67 NW10      30.00R
SANTA MARIA    CLEAR     66  57  72 NW10      29.99R

CITY           SKY/WX    TMP DP  RH WIND       PRES   REMARKS
*LOMPOC        CLEAR     66  54  63 W8        30.01R
*PISMO BEACH     N/A     65  60  81 W1        30.00R
*SANTA YNEZ    FAIR      68  52  56 NW10      29.98S

$$

CAZ037-038-051-050400-
SAN LUIS OBISPO COUNTY INTERIOR AND CUYAMA VALLEY


CITY           SKY/WX    TMP DP  RH WIND       PRES   REMARKS
*CUYAMA          N/A     74  50  42 NW14      29.88R
PASO ROBLES    CLEAR     70  53  54 SW13      29.96R

$$

CAZ032-033-061-050400-
SOUTHERN DESERTS


CITY           SKY/WX    TMP DP  RH WIND       PRES   REMARKS
BLYTHE         CLEAR    106  32   7 SW8       29.71R HX  99
IMPERIAL       CLEAR    106  40  10 SE7       29.68R HX 100
PALM SPRINGS   CLEAR    104  42  12 NW12      29.75R HX  99
THERMAL        CLEAR    101  44  14 N8        29.68R HX  97

$$

ELSEWHERE ACROSS THE WESTERN UNITED STATES AND MEXICO


CITY           SKY/WX    TMP DP  RH WIND       PRES   REMARKS
DENVER, CO     PTCLDY    70  47  43 E10       30.12R
GRAND CANYON,  PTCLDY    69  30  23 SW3       30.25R
HONOLULU, HI   MOSUNNY   88  70  55 NE14G22   29.83S HX  92
KAHULUI, MAUI  MOSUNNY   86  73  66 NE24      29.82F HX  93
LAKE TAHOE, CA PTCLDY    68  45  43 SW6       30.16R
LAS VEGAS, NV  PTCLDY   100  30   8 S8        29.79S HX  94
MAMMOTH LAKES, NOT AVBL
MEXICO CITY, M MOCLDY    68  52  56 N10       30.32R
PHOENIX, AZ    PTCLDY   107  42  11 W10       29.77R HX 102
PORTLAND, OR   PTCLDY    74  51  44 NW16      29.97R
RENO, NV       LGT RAIN  74  50  42 NW9       30.03R
SALT LAKE CITY MOCLDY    83  53  35 S5        29.97R
SAN DIEGO, CA  PTCLDY    76  61  59 NW9       29.90R
SAN FRANCISCO, MOCLDY    68  55  63 W12       29.99R
SAN JOSE, CA   MOCLDY    70  53  54 NW16      29.97R
SEATTLE, WA    PTCLDY    73  50  44 SW9       29.97R
TIJUANA, MEX   CLEAR     75  61  60 W12       29.90F

$$

STATION/POSITION TIME  TEMP    WIND        PRES    VSBY  WAVE
                       AIR SEA DIR/SP/G                  HT/PER
                 (UTC) (F)     (DEG/KT/KT) (MB)    (MI)  (FT/S)
POINT ARGUELLO B NOT AVBL
WEST SANTA BARBA 0250   63 63  310/ 17/ 19 1013.8R         3/ 4
POINT CONCEPTION NOT AVBL
EAST SANTA BARBA 0300   68 66  270/ 21/ 25 1012.5R
SANTA MONICA BAY 0250   71 72  280/ 14/ 16 1012.0S         5/ 6



USA.gov is the U.S. government's official web portal to all federal, state and local government web resources and services.